EW3730 Weather Reports


Display with metric or nautical units.
time (UTC)temp
F
wind
direction
speed
MPH
gust
MPH
rain 1hr
in
rain 24hr
in
rain mn
in
humidity
%
barometer
mb
20260508195024 60 327 1.0 4.0 0.00 0.04 0.03 48 1010.1
20260508194256 61 38 1.0 3.0 0.00 0.04 0.03 48 1010.1
20260508193754 61 34 1.0 3.0 0.00 0.04 0.03 47 1010.1
20260508193254 62 48 1.0 3.0 0.00 0.04 0.03 45 1010.1
20260508192753 62 341 2.0 4.0 0.00 0.04 0.03 44 1010.3
20260508192254 62 341 2.0 4.0 0.00 0.04 0.03 44 1010.2
20260508192024 62 88 1.0 4.0 0.00 0.04 0.03 48 1010.4
20260508191528 60 81 1.0 4.0 0.00 0.04 0.03 47 1010.7
20260508191254 61 86 1.0 4.0 0.00 0.04 0.03 47 1010.6
20260508190253 60 53 1.0 3.0 0.00 0.04 0.03 49 1010.9
20260508185754 60 44 1.0 2.0 0.00 0.04 0.03 48 1011.0
20260508185252 60 49 0.0 3.0 0.00 0.04 0.03 49 1011.0
20260508184752 60 49 1.0 4.0 0.00 0.04 0.03 49 1011.2
20260508184252 60 325 2.0 8.0 0.00 0.04 0.03 47 1011.1
20260508183751 60 329 3.0 8.0 0.00 0.04 0.03 47 1011.3
20260508183252 60 329 3.0 6.0 0.00 0.04 0.03 46 1011.2
20260508182751 61 329 3.0 6.0 0.00 0.04 0.03 45 1011.2
20260508182252 60 315 3.0 5.0 0.00 0.04 0.03 45 1011.4
20260508181752 60 306 3.0 5.0 0.00 0.04 0.03 45 1011.4
20260508181523 60 282 2.0 5.0 0.00 0.04 0.03 45 1011.6
20260508181023 60 336 2.0 5.0 0.00 0.04 0.03 46 1011.6
20260508180252 59 294 2.0 5.0 0.00 0.04 0.03 45 1011.7
20260508175752 60 320 2.0 5.0 0.00 0.04 0.03 46 1011.8
20260508175521 60 295 2.0 4.0 0.00 0.04 0.03 46 1012.0
20260508175021 59 222 2.0 6.0 0.00 0.04 0.03 46 1011.9
20260508174250 59 247 3.0 7.0 0.00 0.04 0.03 46 1011.9
20260508173749 59 210 4.0 9.0 0.00 0.04 0.03 45 1012.1
20260508173250 59 250 4.0 9.0 0.00 0.04 0.03 45 1012.0
20260508172750 59 248 4.0 9.0 0.00 0.04 0.03 44 1012.1
20260508172250 60 228 3.0 12.0 0.00 0.04 0.03 45 1012.1
20260508171750 60 277 3.0 12.0 0.00 0.04 0.03 45 1012.0
20260508171249 60 205 2.0 9.0 0.00 0.04 0.03 46 1012.1
20260508170749 58 241 3.0 10.0 0.00 0.04 0.03 48 1012.3
20260508170745 59 238 3.0 8.0 0.00 0.04 0.03 48 1012.1
20260508165746 57 174 3.0 10.0 0.00 0.04 0.03 48 1012.4
20260508165250 56 239 2.0 7.0 0.00 0.04 0.03 51 1012.9
20260508165246 57 248 2.0 8.0 0.00 0.04 0.03 50 1012.6
20260508164516 55 259 2.0 8.0 0.00 0.04 0.03 51 1013.0
20260508163745 54 249 3.0 8.0 0.01 0.04 0.03 52 1013.3
20260508163246 54 257 2.0 8.0 0.01 0.04 0.03 52 1013.4
20260508163017 53 222 1.0 6.0 0.01 0.04 0.03 54 1013.6
20260508162242 53 239 1.0 6.0 0.01 0.04 0.03 56 1013.6
20260508161742 53 234 1.0 6.0 0.01 0.04 0.03 55 1013.7
20260508161241 53 244 1.0 3.0 0.02 0.04 0.03 56 1013.6
20260508160741 52 245 0.0 3.0 0.02 0.04 0.03 57 1013.7
20260508160241 52 245 0.0 3.0 0.02 0.04 0.03 57 1013.7
20260508155742 52 245 1.0 4.0 0.02 0.04 0.03 57 1014.0
20260508155241 52 245 1.0 4.0 0.02 0.04 0.03 57 1014.0
20260508154741 52 248 1.0 4.0 0.02 0.04 0.03 57 1014.1
20260508154241 52 251 1.0 3.0 0.02 0.04 0.03 57 1014.0
20260508153739 52 251 0.0 3.0 0.01 0.03 0.02 57 1014.0
20260508153240 52 279 0.0 2.0 0.01 0.03 0.02 57 1014.0
20260508152741 52 279 1.0 4.0 0.01 0.03 0.02 57 1013.9
20260508152239 52 284 0.0 4.0 0.01 0.03 0.02 56 1014.1
20260508151735 52 302 0.0 4.0 0.01 0.03 0.02 56 1014.1
20260508151235 52 302 1.0 5.0 0.00 0.02 0.01 55 1014.0
20260508150736 52 308 1.0 8.0 0.00 0.02 0.01 54 1013.9
20260508150236 52 247 2.0 8.0 0.00 0.02 0.01 54 1013.8
20260508145733 52 236 2.0 8.0 0.00 0.02 0.01 53 1013.7
20260508145504 53 250 1.0 8.0 0.00 0.02 0.01 54 1013.9
20260508144733 53 257 1.0 7.0 0.00 0.02 0.01 53 1013.7
20260508144504 53 257 1.0 7.0 0.00 0.02 0.01 53 1013.7
20260508143734 53 232 1.0 8.0 0.00 0.02 0.01 52 1013.6
20260508143230 53 290 1.0 8.0 0.00 0.02 0.01 52 1013.6
20260508142732 53 255 1.0 5.0 0.00 0.02 0.01 52 1013.5
20260508142227 53 248 1.0 5.0 0.00 0.02 0.01 51 1013.6
20260508141725 53 292 1.0 5.0 0.00 0.02 0.01 50 1013.6
20260508141457 53 295 2.0 8.0 0.00 0.02 0.01 50 1013.5
20260508140726 53 279 2.0 8.0 0.00 0.02 0.01 49 1013.5
20260508140456 53 253 1.0 8.0 0.00 0.02 0.01 49 1013.5
20260508135954 53 313 1.0 7.0 0.00 0.02 0.01 50 1013.7
20260508135454 53 232 2.0 7.0 0.00 0.02 0.01 50 1013.6
20260508134724 53 255 2.0 7.0 0.00 0.02 0.01 50 1013.6
20260508134221 53 265 2.0 7.0 0.00 0.02 0.01 50 1013.5
20260508133721 53 196 3.0 8.0 0.00 0.02 0.01 50 1013.6
20260508133452 52 228 3.0 8.0 0.00 0.02 0.01 49 1013.5
20260508132721 52 247 3.0 8.0 0.00 0.02 0.01 50 1013.6
20260508132220 52 244 2.0 8.0 0.00 0.02 0.01 50 1013.8
20260508131719 52 238 3.0 10.0 0.00 0.02 0.01 50 1013.6
20260508131219 52 273 3.0 10.0 0.00 0.02 0.01 49 1013.8
20260508130713 52 251 3.0 9.0 0.00 0.02 0.01 49 1013.6
20260508130206 52 231 3.0 9.0 0.00 0.02 0.01 49 1013.8
20260508125701 52 232 2.0 8.0 0.00 0.02 0.01 49 1013.6
20260508125154 52 215 2.0 7.0 0.00 0.02 0.01 50 1013.5
20260508124649 51 266 2.0 7.0 0.00 0.02 0.01 50 1013.4
20260508124143 51 239 1.0 5.0 0.00 0.02 0.01 50 1013.6
20260508123637 51 251 1.0 5.0 0.00 0.02 0.01 50 1013.5
20260508123130 51 227 2.0 5.0 0.00 0.02 0.01 51 1013.6
20260508122855 51 257 1.0 5.0 0.00 0.02 0.01 51 1013.6
20260508122118 50 207 1.0 5.0 0.00 0.02 0.01 51 1013.5
20260508121613 50 236 1.0 5.0 0.00 0.02 0.01 51 1013.5
20260508121338 50 227 1.0 5.0 0.00 0.02 0.01 51 1013.5
20260508120831 50 241 1.0 4.0 0.00 0.02 0.01 51 1013.5
20260508120055 50 244 1.0 5.0 0.00 0.02 0.01 51 1013.5
20260508115819 50 253 2.0 7.0 0.00 0.02 0.01 51 1013.5
20260508115043 50 248 2.0 7.0 0.00 0.02 0.01 51 1013.4
20260508114808 49 192 2.0 8.0 0.00 0.02 0.01 51 1013.3
20260508114302 49 259 2.0 8.0 0.00 0.02 0.01 51 1013.3
20260508113524 49 254 2.0 7.0 0.00 0.02 0.01 51 1013.1
20260508113250 48 244 1.0 5.0 0.00 0.02 0.01 52 1013.0
20260508112744 48 249 2.0 5.0 0.00 0.02 0.01 52 1013.0
20260508112006 47 240 2.0 5.0 0.00 0.02 0.01 53 1013.0
20260508111500 47 215 1.0 4.0 0.00 0.02 0.01 53 1012.9
20260508110955 47 261 1.0 4.0 0.00 0.02 0.01 53 1013.0
20260508110449 47 244 1.0 4.0 0.00 0.02 0.01 53 1012.7
20260508105943 47 240 1.0 4.0 0.00 0.02 0.01 53 1012.9
20260508105436 46 331 0.0 4.0 0.00 0.02 0.01 53 1012.9
20260508104930 46 263 1.0 4.0 0.00 0.02 0.01 54 1012.9
20260508104424 46 263 1.0 4.0 0.00 0.02 0.01 54 1012.9
20260508103919 46 236 1.0 4.0 0.00 0.02 0.01 54 1012.9
20260508103413 46 243 0.0 4.0 0.00 0.02 0.01 53 1012.9
20260508102907 46 223 0.0 2.0 0.00 0.02 0.01 53 1012.9
20260508102401 46 223 0.0 3.0 0.00 0.02 0.01 53 1012.9
20260508101855 47 223 1.0 6.0 0.00 0.02 0.01 53 1012.7
20260508101349 47 218 2.0 6.0 0.00 0.02 0.01 52 1012.7
20260508100842 46 244 2.0 6.0 0.00 0.02 0.01 53 1012.6
20260508100336 46 215 2.0 5.0 0.00 0.02 0.01 53 1012.6
20260508095831 46 227 1.0 5.0 0.00 0.02 0.01 53 1012.7
20260508095325 46 248 1.0 5.0 0.00 0.02 0.01 53 1012.9
20260508094818 46 234 1.0 5.0 0.00 0.02 0.01 53 1012.9
20260508094312 46 234 1.0 4.0 0.00 0.02 0.01 54 1012.9
20260508093806 46 240 1.0 4.0 0.00 0.02 0.01 53 1012.7
20260508093300 46 246 1.0 4.0 0.00 0.02 0.01 54 1013.0
20260508092754 46 228 1.0 4.0 0.00 0.02 0.01 54 1013.0
20260508092251 46 242 1.0 5.0 0.00 0.02 0.01 53 1013.0
20260508091751 46 247 1.0 5.0 0.00 0.02 0.01 53 1012.9
20260508091251 46 221 1.0 5.0 0.00 0.02 0.01 54 1012.9
20260508090751 46 225 2.0 5.0 0.00 0.02 0.01 54 1012.9
20260508090251 46 235 2.0 4.0 0.00 0.02 0.01 54 1012.9
20260508085751 46 247 1.0 4.0 0.00 0.02 0.01 54 1012.9
20260508085251 46 240 1.0 4.0 0.00 0.02 0.01 54 1012.7
20260508084751 46 222 1.0 4.0 0.00 0.02 0.01 54 1012.9
20260508084250 46 204 2.0 4.0 0.00 0.02 0.01 55 1012.9
20260508083751 46 236 2.0 4.0 0.00 0.02 0.01 55 1012.7
20260508083251 46 258 1.0 4.0 0.00 0.02 0.01 55 1012.7
20260508083022 46 232 0.0 4.0 0.00 0.02 0.01 56 1012.7
20260508082251 46 271 0.0 4.0 0.00 0.02 0.01 56 1012.7
20260508081751 46 211 1.0 4.0 0.00 0.02 0.01 56 1012.7
20260508081251 46 252 1.0 5.0 0.00 0.02 0.01 56 1012.7
20260508080751 46 244 2.0 5.0 0.00 0.02 0.01 56 1012.9
20260508080251 46 142 1.0 5.0 0.00 0.02 0.01 57 1012.9
20260508075745 46 241 1.0 4.0 0.00 0.02 0.01 57 1013.0
20260508075243 46 192 1.0 4.0 0.00 0.02 0.01 57 1013.1
20260508074740 46 215 1.0 4.0 0.00 0.02 0.01 58 1013.1
20260508074512 46 198 1.0 4.0 0.00 0.02 0.01 59 1013.1
20260508073739 46 189 1.0 4.0 0.00 0.02 0.01 60 1013.1
20260508073238 46 255 0.0 2.0 0.00 0.02 0.01 61 1013.2
20260508072737 46 257 0.0 2.0 0.00 0.02 0.01 62 1013.1
20260508072237 46 257 0.0 2.0 0.00 0.02 0.01 62 1013.1
20260508071737 46 257 0.0 0.0 0.00 0.02 0.01 62 1013.2
20260508071235 46 257 0.0 0.0 0.00 0.02 0.01 62 1013.4
20260508070734 46 257 0.0 0.0 0.00 0.02 0.01 62 1013.3
20260508070235 46 257 0.0 0.0 0.00 0.02 0.01 62 1013.4
20260508065734 46 257 0.0 0.0 0.00 0.02 0.01 62 1013.4
20260508065235 46 257 0.0 0.0 0.00 0.02 0.01 62 1013.5
20260508065005 46 257 0.0 0.0 0.00 0.02 0.01 62 1013.5
20260508064505 46 257 0.0 0.0 0.00 0.02 0.01 61 1013.7
20260508063734 46 257 0.0 0.0 0.00 0.02 0.01 61 1013.7
20260508063234 46 257 0.0 0.0 0.00 0.02 0.01 61 1013.7
20260508062734 46 257 0.0 0.0 0.00 0.02 0.01 61 1013.8
20260508062234 47 257 0.0 0.0 0.00 0.02 0.01 60 1013.9
20260508061735 47 257 0.0 0.0 0.00 0.02 0.01 60 1014.0
20260508061235 47 257 0.0 0.0 0.00 0.02 0.01 60 1013.8
20260508060735 47 257 0.0 0.0 0.00 0.02 0.01 60 1013.8
20260508060235 47 257 0.0 0.0 0.00 0.02 0.01 60 1013.7
20260508055735 47 257 0.0 0.0 0.00 0.02 0.01 60 1013.7
20260508055230 47 257 0.0 0.0 0.00 0.02 0.01 59 1013.9
20260508055002 48 257 0.0 0.0 0.00 0.02 0.01 59 1013.8
20260508054231 48 257 0.0 0.0 0.00 0.02 0.01 60 1013.9
20260508054003 48 257 0.0 0.0 0.00 0.02 0.01 60 1013.9
20260508053503 48 257 0.0 0.0 0.00 0.02 0.01 59 1014.0
20260508052731 48 257 0.0 0.0 0.00 0.02 0.01 59 1014.0
20260508052230 48 257 0.0 0.0 0.00 0.02 0.01 59 1014.0
20260508051731 48 257 0.0 0.0 0.00 0.02 0.01 60 1014.0
20260508051502 48 257 0.0 0.0 0.00 0.02 0.01 60 1014.1
20260508050727 48 257 0.0 0.0 0.00 0.02 0.01 59 1014.3
20260508050227 48 257 0.0 0.0 0.01 0.02 0.01 59 1014.4
20260508045727 48 257 0.0 0.0 0.01 0.02 0.01 59 1014.3
20260508045227 48 257 0.0 0.0 0.01 0.02 0.01 59 1014.2
20260508044727 48 257 0.0 0.0 0.01 0.02 0.01 58 1014.3
20260508044229 49 257 0.0 0.0 0.01 0.02 0.01 58 1014.4
20260508043728 49 257 0.0 0.0 0.01 0.02 0.01 58 1014.3
20260508043230 49 257 0.0 1.0 0.01 0.02 0.01 58 1014.3
20260508043001 49 257 0.0 3.0 0.02 0.02 0.01 57 1014.3
20260508042227 49 257 0.0 3.0 0.02 0.02 0.01 57 1014.4
20260508041727 49 258 2.0 7.0 0.02 0.02 0.01 56 1014.6
20260508041227 49 258 2.0 8.0 0.02 0.02 0.01 56 1014.5
20260508040727 50 314 2.0 8.0 0.02 0.02 0.01 56 1014.7
20260508040224 50 271 2.0 6.0 0.01 0.01 0.00 56 1014.9
20260508035724 50 331 2.0 4.0 0.01 0.01 0.01 54 1014.4
20260508035223 50 288 1.0 4.0 0.01 0.01 0.01 52 1013.9
20260508034722 50 213 1.0 4.0 0.01 0.01 0.01 54 1013.7
20260508034222 50 200 1.0 5.0 0.01 0.01 0.01 54 1013.4
20260508033722 50 214 1.0 5.0 0.01 0.01 0.01 54 1013.4
20260508033221 50 167 1.0 5.0 0.01 0.01 0.01 54 1013.4
20260508032718 50 209 1.0 4.0 0.00 0.00 0.00 54 1013.7
20260508032220 50 220 1.0 4.0 0.00 0.00 0.00 54 1013.7
20260508031713 50 186 1.0 4.0 0.00 0.00 0.00 53 1013.5
20260508031207 50 202 1.0 5.0 0.00 0.00 0.00 53 1013.6
20260508030700 50 181 1.0 5.0 0.00 0.00 0.00 53 1013.7
20260508030653 50 194 1.0 5.0 0.00 0.00 0.00 53 1013.9
20260508025649 50 170 1.0 6.0 0.00 0.00 0.00 52 1013.8
20260508025147 51 221 2.0 6.0 0.00 0.00 0.00 52 1014.0
20260508024645 51 197 1.0 5.0 0.00 0.00 0.00 51 1013.9
20260508024147 51 223 0.0 3.0 0.00 0.00 0.00 51 1014.0
20260508023644 51 257 0.0 2.0 0.00 0.00 0.00 51 1014.1
20260508023140 51 257 1.0 4.0 0.00 0.00 0.00 50 1014.1
20260508022640 51 257 0.0 4.0 0.00 0.00 0.00 49 1014.2
20260508022139 51 259 0.0 2.0 0.00 0.00 0.00 47 1014.1
20260508021907 51 259 0.0 1.0 0.00 0.00 0.00 47 1013.9
20260508021134 52 259 0.0 1.0 0.00 0.00 0.00 47 1014.0
20260508020632 52 259 0.0 2.0 0.00 0.00 0.00 48 1014.0
20260508020132 52 259 0.0 2.0 0.00 0.00 0.00 47 1013.9
20260508015903 52 259 0.0 2.0 0.00 0.00 0.00 46 1014.0
20260508015407 52 259 0.0 2.0 0.00 0.00 0.00 45 1014.0
20260508015132 52 259 0.0 2.0 0.00 0.00 0.00 46 1014.0
20260508014132 52 259 0.0 2.0 0.00 0.00 0.00 45 1014.0
20260508013632 52 259 0.0 2.0 0.00 0.00 0.00 44 1013.9
20260508013130 52 260 0.0 1.0 0.00 0.00 0.00 44 1014.0
20260508012858 52 260 0.0 2.0 0.00 0.00 0.00 44 1014.0
20260508012358 53 260 0.0 2.0 0.00 0.00 0.00 44 1013.8
20260508011622 53 260 0.0 2.0 0.00 0.00 0.00 44 1013.7
20260508011116 53 260 0.0 2.0 0.00 0.00 0.00 43 1013.7
20260508010610 53 261 0.0 2.0 0.00 0.00 0.00 44 1013.6
20260508010104 53 269 0.0 2.0 0.00 0.00 0.00 44 1013.7
20260508005558 53 269 0.0 2.0 0.00 0.00 0.00 43 1013.5
20260508005322 53 284 0.0 1.0 0.00 0.00 0.00 44 1013.6
20260508004543 53 284 0.0 1.0 0.00 0.00 0.00 43 1013.9
20260508004037 53 284 0.0 1.0 0.00 0.00 0.00 42 1013.6
20260508003532 53 284 0.0 1.0 0.00 0.00 0.00 42 1013.7
20260508003026 53 284 0.0 1.0 0.00 0.00 0.00 42 1013.6
20260508002520 53 287 0.0 1.0 0.00 0.00 0.00 42 1013.8
20260508002244 53 289 0.0 1.0 0.00 0.00 0.00 42 1013.7
20260508001508 53 289 0.0 2.0 0.00 0.00 0.00 42 1013.7
20260508001002 53 289 0.0 2.0 0.00 0.00 0.00 42 1013.8
20260508000457 53 292 1.0 5.0 0.00 0.00 0.00 42 1013.7
20260507235949 53 292 2.0 5.0 0.00 0.00 0.00 41 1013.9
20260507235444 53 291 2.0 8.0 0.00 0.00 0.00 42 1013.9
20260507234938 53 238 3.0 8.0 0.00 0.00 0.00 42 1014.1
20260507234934 53 258 5.0 12.0 0.00 0.00 0.00 42 1014.2
20260507233926 53 296 4.0 12.0 0.00 0.00 0.00 41 1014.1
20260507233419 54 313 2.0 9.0 0.00 0.00 0.00 40 1014.1
20260507233415 54 260 3.0 11.0 0.00 0.00 0.00 40 1014.2
20260507232407 54 311 5.0 12.0 0.00 0.00 0.00 38 1014.2
20260507232132 54 298 4.0 12.0 0.00 0.00 0.00 36 1014.1
20260507231627 55 295 3.0 13.0 0.00 0.00 0.00 35 1014.2
20260507230849 55 254 2.0 13.0 0.00 0.00 0.00 36 1014.0
20260507230344 55 336 2.0 7.0 0.00 0.00 0.00 34 1013.9
20260507230108 55 317 3.0 7.0 0.00 0.00 0.00 35 1013.9
20260507225331 56 171 2.0 12.0 0.00 0.00 0.00 36 1013.8
20260507224826 56 333 2.0 12.0 0.00 0.00 0.00 31 1014.0
20260507224319 56 278 2.0 7.0 0.00 0.00 0.00 31 1013.6
20260507223813 56 259 2.0 9.0 0.00 0.00 0.00 30 1013.6
20260507223308 57 309 2.0 9.0 0.00 0.00 0.00 31 1013.5
20260507223304 57 325 2.0 7.0 0.00 0.00 0.00 29 1013.5
20260507222753 57 291 3.0 9.0 0.00 0.00 0.00 28 1013.7
20260507222356 57 255 3.0 9.0 0.00 0.00 0.00 28 1013.6
20260507221244 57 277 3.0 8.0 0.00 0.00 0.00 28 1013.5
20260507221008 58 332 3.0 8.0 0.00 0.00 0.00 27 1013.4
20260507220232 58 299 3.0 10.0 0.00 0.00 0.00 28 1013.4
20260507215727 58 284 4.0 10.0 0.00 0.00 0.00 29 1013.5
20260507215723 58 286 3.0 9.0 0.00 0.00 0.00 30 1013.3
20260507214713 58 316 3.0 6.0 0.00 0.00 0.00 30 1013.2
20260507214709 57 286 3.0 10.0 0.00 0.00 0.00 29 1013.3
20260507213932 57 328 3.0 10.0 0.00 0.00 0.00 30 1013.3
20260507213155 56 348 4.0 11.0 0.00 0.00 0.00 30 1013.5
20260507212921 56 272 5.0 11.0 0.00 0.00 0.00 29 1013.5
20260507212143 57 304 5.0 11.0 0.00 0.00 0.00 28 1013.4
20260507211642 57 282 5.0 11.0 0.00 0.00 0.00 29 1013.6
20260507211142 58 304 5.0 12.0 0.00 0.00 0.00 28 1013.5
20260507210642 59 303 6.0 13.0 0.00 0.00 0.00 28 1013.5
20260507210141 59 291 6.0 13.0 0.00 0.00 0.00 29 1013.5
20260507205642 59 349 4.0 11.0 0.00 0.00 0.00 29 1013.6
20260507205146 57 273 6.0 12.0 0.00 0.00 0.00 31 1013.6
20260507205142 58 286 5.0 12.0 0.00 0.00 0.00 28 1013.6
20260507204139 57 294 5.0 11.0 0.00 0.00 0.00 29 1013.8
20260507203638 57 5 5.0 12.0 0.00 0.00 0.00 31 1013.8
20260507203138 57 300 6.0 14.0 0.00 0.00 0.00 30 1013.8
20260507202908 56 288 6.0 14.0 0.00 0.00 0.00 33 1014.0
20260507202138 56 282 4.0 11.0 0.00 0.00 0.00 31 1013.9
20260507201908 57 292 4.0 11.0 0.00 0.00 0.00 32 1013.8
20260507201140 56 5 5.0 11.0 0.00 0.00 0.00 31 1013.8
20260507200640 56 302 6.0 15.0 0.00 0.00 0.00 30 1013.8
20260507200411 57 318 5.0 15.0 0.00 0.00 0.00 30 1013.8
20260507195632 57 321 4.0 11.0 0.00 0.00 0.00 32 1013.9